Simultaneous Nadir Overpasses (SNOs) Predictions

Prediction of SNOs between AQUA and NOAA-19 Satellite Orbit:

Table of predicted SNOs for the next 14.0 days since TLE Epoch: 11/19/2022
Index Date (AQUA) Time (AQUA) Lat,Lon (AQUA) SZA (AQUA ) Date (NOAA-19) Time (NOAA-19) Lat,Lon (NOAA-19) SZA (NOAA-19 ) Distance(km) Time Diff (sec)
1 11/20/2022 15:45:16 -76.82, 111.14 83.33 11/20/2022 15:44:07 -76.75, 109.05 83.30 53.70 69
2 11/20/2022 16:34:47 77.07, -82.16 96.97 11/20/2022 16:34:58 77.09, -82.21 96.99 2.01 11
3 11/22/2022 22:07:42 -77.08, 14.59 82.53 11/22/2022 22:07:45 -77.09, 14.67 82.53 2.01 3
4 11/25/2022 03:40:37 77.05, 111.49 97.89 11/25/2022 03:40:32 77.05, 111.38 97.90 2.77 5
5 11/27/2022 09:13:31 -77.04,-151.69 81.69 11/27/2022 09:13:20 -77.05,-151.75 81.68 1.84 11
6 11/27/2022 10:03:03 77.31, 14.92 98.62 11/27/2022 10:04:12 77.30, 16.69 98.54 43.32 69
7 11/29/2022 14:46:26 77.05, -54.94 98.72 11/29/2022 14:46:05 77.03, -54.95 98.70 2.64 21
8 11/29/2022 15:35:52 -77.08, 112.59 81.25 11/29/2022 15:37:06 -77.07, 112.49 81.26 2.73 74
9 12/01/2022 20:19:19 -77.03, 41.95 80.96 12/01/2022 20:18:54 -77.03, 41.90 80.95 1.33 25



Historial Predications of SNOs between AQUA and NOAA-19
